This is the latest recevied weather packets stored in our database for station/object W1LBM. If no packets are shown the sender has not sent any weather packets the latest 1 day(s).
| Time | Temp. | Humidity | Pressure | Rain* | Wind** | Luminosity | Snow |
|---|---|---|---|---|---|---|---|
| 1778013883 | 21.67° C | 55% | 1011.6 hPa | 0 mm | 0.89 m/s, 117° | 89 W/m² | - |
| 1778013580 | 21.67° C | 55% | 1011.5 hPa | 0 mm | 1.79 m/s, 204° | 85 W/m² | - |
| 1778013276 | 22.22° C | 54% | 1011.5 hPa | 0 mm | 0.89 m/s, 125° | 76 W/m² | - |
| 1778012972 | 22.22° C | 55% | 1011.7 hPa | 0 mm | 0 m/s | 210 W/m² | - |
| 1778012669 | 22.22° C | 55% | 1011.7 hPa | 0 mm | 1.34 m/s, 124° | 191 W/m² | - |
| 1778012366 | 22.22° C | 56% | 1011.9 hPa | 0 mm | 0.45 m/s, 165° | 199 W/m² | - |
| 1778012063 | 21.67° C | 56% | 1011.4 hPa | 0 mm | 0 m/s | 213 W/m² | - |
| 1778011761 | 22.22° C | 56% | 1011.8 hPa | 0 mm | 0.89 m/s, 122° | 182 W/m² | - |
| 1778011458 | 22.22° C | 56% | 1011.8 hPa | 0 mm | 0.45 m/s, 128° | 150 W/m² | - |
| 1778011153 | 22.22° C | 56% | 1011.8 hPa | 0 mm | 0.45 m/s, 146° | 113 W/m² | - |
| 1778010851 | 22.22° C | 56% | 1011.6 hPa | 0 mm | 2.24 m/s, 160° | 199 W/m² | - |
| 1778010548 | 22.22° C | 55% | 1011.6 hPa | 0 mm | 0.45 m/s, 140° | 264 W/m² | - |
| 1778010246 | 21.67° C | 55% | 1011.7 hPa | 0 mm | 0.45 m/s, 152° | 198 W/m² | - |
| 1778009945 | 22.22° C | 56% | 1011.7 hPa | 0 mm | 1.79 m/s, 116° | 361 W/m² | - |
| 1778009644 | 22.78° C | 54% | 1011.8 hPa | 0 mm | 1.79 m/s, 106° | 522 W/m² | - |
| 1778009341 | 22.78° C | 54% | 1011.7 hPa | 0 mm | 0.89 m/s, 102° | 402 W/m² | - |
| 1778009039 | 22.78° C | 54% | 1012 hPa | 0 mm | 1.34 m/s, 180° | 534 W/m² | - |
| 1778008736 | 22.78° C | 55% | 1011.9 hPa | 0 mm | 1.34 m/s, 88° | 541 W/m² | - |
| 1778008435 | 22.78° C | 55% | 1011.7 hPa | 0 mm | 0.89 m/s, 154° | 557 W/m² | - |
| 1778008131 | 22.78° C | 55% | 1011.7 hPa | 0 mm | 1.34 m/s, 166° | 568 W/m² | - |
| 1778007827 | 22.78° C | 55% | 1012 hPa | 0 mm | 1.34 m/s, 128° | 576 W/m² | - |
| 1778007522 | 23.33° C | 54% | 1011.9 hPa | 0 mm | 0.45 m/s, 120° | 586 W/m² | - |
| 1778007219 | 22.78° C | 54% | 1011.9 hPa | 0 mm | 0.89 m/s, 132° | 593 W/m² | - |
| 1778006915 | 22.78° C | 54% | 1011.9 hPa | 0 mm | 2.24 m/s, 176° | 600 W/m² | - |
| 1778006612 | 22.78° C | 55% | 1012 hPa | 0 mm | 1.34 m/s, 143° | 612 W/m² | - |
* Rain latest hour (hover to see other rain measurements)
** Current wind speed in m/s (hover to see current wind gust speed)